Location: Perryvale
(54.4667°N, 113.3833°W)
Time: 00:50:12
(UTC+00:00)

SR - Pass Details

Date: 26 May 2024
Orbit: 580 x 858 km, 66.7° (Epoch: 13 June)

Event Time Altitude Azimuth Distance (km) Brightness Sun altitude
Rises 09:04:13 0° 315° (NW) 2,892 ? -11.7°
Reaches altitude 10° 09:06:36 10° 309° (NW) 1,954 ? -11.5°
Maximum altitude 09:10:42 41° 239° (WSW) 854 ? -11.3°
Enters shadow 09:14:37 10° 169° (S) 1,874 ? -11.1°
